| time (UTC) | temp F | wind direction | speed MPH | gust MPH | rain 1hr in | rain 24hr in | rain mn in | humidity % | barometer mb |
| 20260507023704 | 41 | 16 | 0.0 | 0.0 | 0.00 | 0.00 | 0.00 | 48 | 1014.1 |
| 20260507023204 | 41 | 16 | 0.0 | 0.0 | 0.00 | 0.00 | 0.00 | 48 | 1014.0 |
| 20260507022704 | 41 | 16 | 0.0 | 0.0 | 0.00 | 0.00 | 0.00 | 47 | 1014.1 |
| 20260507022205 | 41 | 16 | 0.0 | 0.0 | 0.00 | 0.00 | 0.00 | 47 | 1014.2 |
| 20260507021704 | 41 | 16 | 0.0 | 0.0 | 0.00 | 0.00 | 0.00 | 47 | 1014.2 |
| 20260507020704 | 42 | 16 | 0.0 | 0.0 | 0.00 | 0.00 | 0.00 | 46 | 1014.2 |
| 20260507020204 | 42 | 16 | 0.0 | 0.0 | 0.00 | 0.00 | 0.00 | 45 | 1014.2 |
| 20260507015704 | 42 | 16 | 0.0 | 0.0 | 0.00 | 0.00 | 0.00 | 45 | 1014.1 |
| 20260507014705 | 42 | 16 | 0.0 | 1.0 | 0.00 | 0.00 | 0.00 | 44 | 1014.1 |
| 20260507013704 | 43 | 16 | 0.0 | 5.0 | 0.00 | 0.00 | 0.00 | 43 | 1014.1 |
| 20260507013204 | 43 | 5 | 0.0 | 3.0 | 0.00 | 0.00 | 0.00 | 43 | 1014.0 |
| 20260507012704 | 43 | 3 | 0.0 | 1.0 | 0.00 | 0.00 | 0.00 | 43 | 1014.1 |
| 20260507012204 | 44 | 3 | 0.0 | 3.0 | 0.00 | 0.00 | 0.00 | 42 | 1014.1 |
| 20260507011704 | 44 | 6 | 0.0 | 5.0 | 0.00 | 0.00 | 0.00 | 41 | 1014.1 |
| 20260507011204 | 44 | 8 | 1.0 | 6.0 | 0.00 | 0.00 | 0.00 | 41 | 1014.1 |
| 20260507010704 | 44 | 2 | 0.0 | 7.0 | 0.00 | 0.00 | 0.00 | 41 | 1014.1 |
| 20260507010204 | 44 | 48 | 1.0 | 7.0 | 0.00 | 0.00 | 0.00 | 40 | 1014.1 |
| 20260507005704 | 45 | 17 | 0.0 | 9.0 | 0.00 | 0.00 | 0.00 | 41 | 1014.1 |
| 20260507004204 | 45 | 336 | 1.0 | 5.0 | 0.00 | 0.00 | 0.00 | 41 | 1014.2 |
| 20260507003704 | 46 | 25 | 1.0 | 6.0 | 0.00 | 0.00 | 0.00 | 40 | 1014.0 |
| 20260507003204 | 46 | 0 | 1.0 | 6.0 | 0.00 | 0.00 | 0.00 | 40 | 1014.0 |
| 20260507002705 | 46 | 340 | 1.0 | 8.0 | 0.00 | 0.00 | 0.00 | 39 | 1014.1 |
| 20260507002204 | 46 | 342 | 2.0 | 8.0 | 0.00 | 0.00 | 0.00 | 39 | 1014.2 |
| 20260507001705 | 46 | 342 | 3.0 | 8.0 | 0.00 | 0.00 | 0.00 | 42 | 1014.2 |
| 20260507001205 | 46 | 278 | 2.0 | 8.0 | 0.00 | 0.00 | 0.00 | 40 | 1014.2 |
| 20260507000704 | 46 | 345 | 3.0 | 8.0 | 0.00 | 0.00 | 0.00 | 40 | 1014.3 |
| 20260507000212 | 46 | 20 | 2.0 | 9.0 | 0.00 | 0.00 | 0.00 | 42 | 1014.1 |
| 20260506235704 | 46 | 349 | 0.0 | 9.0 | 0.00 | 0.00 | 0.00 | 40 | 1014.2 |
| 20260506235204 | 46 | 2 | 3.0 | 9.0 | 0.00 | 0.00 | 0.00 | 39 | 1014.3 |
| 20260506234704 | 46 | 256 | 1.0 | 9.0 | 0.00 | 0.00 | 0.00 | 40 | 1014.3 |
| 20260506233704 | 46 | 31 | 1.0 | 7.0 | 0.00 | 0.00 | 0.00 | 40 | 1014.3 |
| 20260506232704 | 46 | 348 | 1.0 | 12.0 | 0.00 | 0.00 | 0.00 | 40 | 1014.4 |
| 20260506232204 | 46 | 9 | 2.0 | 12.0 | 0.00 | 0.00 | 0.00 | 39 | 1014.4 |
| 20260506231704 | 46 | 22 | 2.0 | 9.0 | 0.00 | 0.00 | 0.00 | 39 | 1014.4 |
| 20260506231204 | 46 | 345 | 1.0 | 8.0 | 0.00 | 0.00 | 0.00 | 39 | 1014.5 |
| 20260506225704 | 47 | 334 | 1.0 | 10.0 | 0.00 | 0.00 | 0.00 | 39 | 1014.5 |
| 20260506225204 | 46 | 274 | 1.0 | 10.0 | 0.00 | 0.00 | 0.00 | 39 | 1014.5 |
| 20260506224704 | 47 | 17 | 1.0 | 12.0 | 0.00 | 0.00 | 0.00 | 39 | 1014.5 |
| 20260506224205 | 47 | 7 | 3.0 | 12.0 | 0.00 | 0.00 | 0.00 | 38 | 1014.5 |
| 20260506223205 | 47 | 26 | 3.0 | 13.0 | 0.00 | 0.00 | 0.00 | 39 | 1014.5 |
| 20260506222204 | 47 | 261 | 2.0 | 10.0 | 0.00 | 0.00 | 0.00 | 40 | 1014.5 |
| 20260506221705 | 47 | 21 | 3.0 | 10.0 | 0.00 | 0.00 | 0.00 | 38 | 1014.6 |
| 20260506221204 | 47 | 257 | 1.0 | 10.0 | 0.00 | 0.00 | 0.00 | 40 | 1014.7 |
| 20260506220704 | 47 | 22 | 1.0 | 8.0 | 0.00 | 0.00 | 0.00 | 40 | 1014.6 |
| 20260506220205 | 47 | 37 | 2.0 | 8.0 | 0.00 | 0.00 | 0.00 | 38 | 1014.6 |
| 20260506215204 | 47 | 357 | 1.0 | 5.0 | 0.00 | 0.00 | 0.00 | 40 | 1014.7 |
| 20260506214705 | 47 | 324 | 1.0 | 14.0 | 0.00 | 0.00 | 0.00 | 40 | 1014.7 |
| 20260506214204 | 47 | 327 | 2.0 | 14.0 | 0.00 | 0.00 | 0.00 | 39 | 1014.8 |
| 20260506213704 | 47 | 0 | 3.0 | 9.0 | 0.00 | 0.00 | 0.00 | 38 | 1014.8 |
| 20260506213204 | 47 | 353 | 1.0 | 12.0 | 0.00 | 0.00 | 0.00 | 40 | 1014.9 |
| 20260506212704 | 47 | 1 | 3.0 | 12.0 | 0.00 | 0.00 | 0.00 | 38 | 1014.9 |
| 20260506212204 | 47 | 322 | 2.0 | 10.0 | 0.00 | 0.00 | 0.00 | 40 | 1015.0 |
| 20260506211704 | 47 | 30 | 3.0 | 12.0 | 0.00 | 0.00 | 0.00 | 39 | 1014.9 |
| 20260506211204 | 47 | 324 | 1.0 | 12.0 | 0.00 | 0.00 | 0.00 | 41 | 1014.8 |
| 20260506210704 | 47 | 335 | 2.0 | 6.0 | 0.00 | 0.00 | 0.00 | 40 | 1015.0 |
| 20260506210204 | 47 | 292 | 2.0 | 8.0 | 0.00 | 0.00 | 0.00 | 40 | 1015.0 |
| 20260506205704 | 47 | 320 | 0.0 | 8.0 | 0.00 | 0.00 | 0.00 | 42 | 1015.0 |
| 20260506205204 | 46 | 354 | 1.0 | 12.0 | 0.00 | 0.00 | 0.00 | 41 | 1015.1 |
| 20260506204704 | 46 | 311 | 3.0 | 12.0 | 0.00 | 0.00 | 0.00 | 40 | 1015.2 |
| 20260506204205 | 46 | 333 | 2.0 | 10.0 | 0.00 | 0.00 | 0.00 | 40 | 1015.2 |
| 20260506203705 | 46 | 348 | 1.0 | 9.0 | 0.00 | 0.00 | 0.00 | 42 | 1015.2 |
| 20260506203204 | 46 | 341 | 1.0 | 12.0 | 0.00 | 0.00 | 0.00 | 42 | 1015.3 |
| 20260506202706 | 46 | 332 | 2.0 | 12.0 | 0.00 | 0.00 | 0.00 | 40 | 1015.4 |
| 20260506202205 | 46 | 10 | 1.0 | 7.0 | 0.00 | 0.00 | 0.00 | 41 | 1015.3 |
| 20260506201704 | 46 | 19 | 0.0 | 7.0 | 0.00 | 0.00 | 0.00 | 42 | 1015.3 |
| 20260506201204 | 46 | 336 | 1.0 | 10.0 | 0.00 | 0.00 | 0.00 | 42 | 1015.4 |
| 20260506200705 | 46 | 337 | 2.0 | 10.0 | 0.00 | 0.00 | 0.00 | 41 | 1015.3 |
| 20260506200204 | 46 | 6 | 2.0 | 9.0 | 0.00 | 0.00 | 0.00 | 42 | 1015.3 |
| 20260506195704 | 46 | 290 | 1.0 | 7.0 | 0.00 | 0.00 | 0.00 | 43 | 1015.3 |
| 20260506194704 | 45 | 310 | 0.0 | 9.0 | 0.00 | 0.00 | 0.00 | 42 | 1015.4 |
| 20260506194204 | 46 | 29 | 2.0 | 9.0 | 0.00 | 0.00 | 0.00 | 42 | 1015.4 |
| 20260506193704 | 46 | 345 | 0.0 | 8.0 | 0.00 | 0.00 | 0.00 | 43 | 1015.4 |
| 20260506193204 | 46 | 272 | 0.0 | 8.0 | 0.00 | 0.00 | 0.00 | 43 | 1015.5 |
| 20260506192204 | 45 | 316 | 4.0 | 12.0 | 0.00 | 0.00 | 0.00 | 41 | 1015.5 |
| 20260506191705 | 45 | 324 | 3.0 | 9.0 | 0.00 | 0.00 | 0.00 | 42 | 1015.5 |
| 20260506191204 | 45 | 5 | 3.0 | 9.0 | 0.00 | 0.00 | 0.00 | 42 | 1015.4 |
| 20260506190705 | 45 | 28 | 3.0 | 8.0 | 0.00 | 0.00 | 0.00 | 43 | 1015.4 |
| 20260506190205 | 44 | 317 | 2.0 | 8.0 | 0.00 | 0.00 | 0.00 | 43 | 1015.3 |
| 20260506185705 | 44 | 294 | 2.0 | 8.0 | 0.00 | 0.00 | 0.00 | 44 | 1015.3 |
| 20260506184704 | 44 | 25 | 2.0 | 10.0 | 0.00 | 0.00 | 0.00 | 42 | 1015.4 |
| 20260506184204 | 44 | 307 | 1.0 | 14.0 | 0.00 | 0.00 | 0.00 | 43 | 1015.4 |
| 20260506183704 | 44 | 1 | 2.0 | 17.0 | 0.00 | 0.00 | 0.00 | 42 | 1015.4 |
| 20260506183204 | 44 | 295 | 3.0 | 17.0 | 0.00 | 0.00 | 0.00 | 42 | 1015.5 |
| 20260506182705 | 44 | 8 | 1.0 | 14.0 | 0.00 | 0.00 | 0.00 | 42 | 1015.4 |
| 20260506182204 | 44 | 0 | 1.0 | 14.0 | 0.00 | 0.00 | 0.00 | 42 | 1015.5 |
| 20260506181704 | 44 | 26 | 4.0 | 14.0 | 0.00 | 0.00 | 0.00 | 41 | 1015.5 |
| 20260506181205 | 44 | 57 | 3.0 | 12.0 | 0.00 | 0.00 | 0.00 | 42 | 1015.4 |
| 20260506180704 | 44 | 357 | 1.0 | 12.0 | 0.00 | 0.00 | 0.00 | 42 | 1015.5 |
| 20260506175705 | 43 | 24 | 2.0 | 9.0 | 0.00 | 0.00 | 0.00 | 44 | 1015.5 |
| 20260506175204 | 43 | 351 | 2.0 | 12.0 | 0.00 | 0.00 | 0.00 | 44 | 1015.6 |
| 20260506174704 | 43 | 344 | 3.0 | 12.0 | 0.00 | 0.00 | 0.00 | 42 | 1015.6 |
| 20260506174205 | 43 | 20 | 2.0 | 12.0 | 0.00 | 0.00 | 0.00 | 44 | 1015.6 |
| 20260506173704 | 43 | 348 | 1.0 | 10.0 | 0.00 | 0.00 | 0.00 | 44 | 1015.6 |
| 20260506173204 | 43 | 5 | 3.0 | 13.0 | 0.00 | 0.00 | 0.00 | 44 | 1015.7 |
| 20260506172704 | 43 | 5 | 4.0 | 13.0 | 0.00 | 0.00 | 0.00 | 43 | 1015.7 |
| 20260506172204 | 43 | 27 | 4.0 | 15.0 | 0.00 | 0.00 | 0.00 | 43 | 1015.6 |
| 20260506171704 | 43 | 18 | 5.0 | 15.0 | 0.00 | 0.00 | 0.00 | 42 | 1015.7 |
| 20260506171204 | 43 | 290 | 2.0 | 10.0 | 0.00 | 0.00 | 0.00 | 44 | 1015.6 |
| 20260506170704 | 43 | 13 | 0.0 | 10.0 | 0.00 | 0.00 | 0.00 | 44 | 1015.7 |
| 20260506170205 | 43 | 31 | 2.0 | 10.0 | 0.00 | 0.00 | 0.00 | 43 | 1015.7 |
| 20260506165704 | 43 | 28 | 2.0 | 9.0 | 0.00 | 0.00 | 0.00 | 43 | 1015.8 |
| 20260506165204 | 43 | 17 | 1.0 | 9.0 | 0.00 | 0.00 | 0.00 | 44 | 1015.9 |
| 20260506164704 | 43 | 352 | 3.0 | 17.0 | 0.00 | 0.00 | 0.00 | 44 | 1015.9 |
| 20260506164204 | 42 | 353 | 6.0 | 17.0 | 0.00 | 0.00 | 0.00 | 43 | 1015.9 |
| 20260506163205 | 43 | 356 | 3.0 | 12.0 | 0.00 | 0.00 | 0.00 | 43 | 1015.9 |
| 20260506162705 | 43 | 26 | 2.0 | 12.0 | 0.00 | 0.00 | 0.00 | 43 | 1016.0 |
| 20260506162205 | 42 | 8 | 3.0 | 13.0 | 0.00 | 0.00 | 0.00 | 44 | 1015.9 |
| 20260506161204 | 42 | 22 | 3.0 | 12.0 | 0.00 | 0.00 | 0.00 | 43 | 1015.9 |
| 20260506160205 | 42 | 24 | 3.0 | 10.0 | 0.00 | 0.00 | 0.00 | 44 | 1015.8 |
| 20260506155704 | 41 | 9 | 2.0 | 15.0 | 0.00 | 0.00 | 0.00 | 44 | 1015.8 |
| 20260506155204 | 41 | 355 | 5.0 | 15.0 | 0.00 | 0.00 | 0.00 | 44 | 1015.9 |
| 20260506154705 | 41 | 334 | 3.0 | 12.0 | 0.00 | 0.00 | 0.00 | 45 | 1016.0 |
| 20260506154204 | 41 | 1 | 2.0 | 10.0 | 0.00 | 0.00 | 0.00 | 44 | 1015.9 |
| 20260506153704 | 41 | 5 | 3.0 | 10.0 | 0.00 | 0.00 | 0.00 | 44 | 1015.8 |
| 20260506153205 | 42 | 354 | 5.0 | 13.0 | 0.00 | 0.00 | 0.00 | 43 | 1015.9 |
| 20260506152704 | 42 | 318 | 2.0 | 13.0 | 0.00 | 0.00 | 0.00 | 45 | 1015.8 |
| 20260506151705 | 41 | 307 | 2.0 | 12.0 | 0.00 | 0.00 | 0.00 | 46 | 1015.7 |
| 20260506150705 | 41 | 19 | 3.0 | 12.0 | 0.00 | 0.00 | 0.00 | 45 | 1015.8 |
| 20260506150205 | 41 | 356 | 2.0 | 12.0 | 0.00 | 0.00 | 0.00 | 46 | 1015.8 |
| 20260506145704 | 41 | 217 | 1.0 | 12.0 | 0.00 | 0.00 | 0.00 | 48 | 1015.8 |
| 20260506145204 | 40 | 346 | 3.0 | 12.0 | 0.00 | 0.00 | 0.00 | 46 | 1015.9 |
| 20260506144706 | 40 | 3 | 4.0 | 10.0 | 0.00 | 0.00 | 0.00 | 46 | 1015.9 |
| 20260506144205 | 40 | 24 | 3.0 | 10.0 | 0.00 | 0.00 | 0.00 | 47 | 1015.8 |
| 20260506143705 | 40 | 300 | 3.0 | 10.0 | 0.00 | 0.00 | 0.00 | 47 | 1015.9 |
| 20260506143204 | 40 | 20 | 3.0 | 9.0 | 0.00 | 0.00 | 0.00 | 49 | 1015.9 |
| 20260506142704 | 40 | 6 | 2.0 | 8.0 | 0.00 | 0.00 | 0.00 | 48 | 1015.9 |
| 20260506142204 | 39 | 26 | 1.0 | 9.0 | 0.00 | 0.00 | 0.00 | 48 | 1015.8 |
| 20260506141705 | 39 | 3 | 4.0 | 12.0 | 0.00 | 0.00 | 0.00 | 48 | 1015.8 |
| 20260506141205 | 39 | 9 | 1.0 | 12.0 | 0.00 | 0.00 | 0.00 | 49 | 1015.8 |
| 20260506140706 | 39 | 45 | 2.0 | 13.0 | 0.00 | 0.00 | 0.00 | 49 | 1015.8 |
| 20260506140205 | 39 | 321 | 3.0 | 13.0 | 0.00 | 0.00 | 0.00 | 48 | 1015.8 |
| 20260506135704 | 39 | 355 | 4.0 | 10.0 | 0.00 | 0.00 | 0.00 | 48 | 1015.7 |
| 20260506135205 | 39 | 18 | 3.0 | 9.0 | 0.00 | 0.00 | 0.00 | 48 | 1015.7 |
| 20260506134705 | 39 | 25 | 2.0 | 7.0 | 0.00 | 0.00 | 0.00 | 48 | 1015.7 |
| 20260506134204 | 39 | 19 | 1.0 | 12.0 | 0.00 | 0.00 | 0.00 | 49 | 1015.6 |
| 20260506133705 | 39 | 40 | 3.0 | 12.0 | 0.00 | 0.00 | 0.00 | 48 | 1015.6 |
| 20260506133205 | 39 | 0 | 1.0 | 12.0 | 0.00 | 0.00 | 0.00 | 49 | 1015.5 |
| 20260506132704 | 39 | 14 | 3.0 | 12.0 | 0.00 | 0.00 | 0.00 | 49 | 1015.5 |
| 20260506132204 | 39 | 350 | 0.0 | 6.0 | 0.00 | 0.00 | 0.00 | 51 | 1015.4 |
| 20260506131704 | 39 | 7 | 1.0 | 6.0 | 0.00 | 0.00 | 0.00 | 52 | 1015.4 |
| 20260506131205 | 38 | 10 | 1.0 | 7.0 | 0.00 | 0.00 | 0.00 | 52 | 1015.3 |
| 20260506130705 | 38 | 270 | 0.0 | 8.0 | 0.00 | 0.00 | 0.00 | 53 | 1015.3 |
| 20260506130205 | 38 | 53 | 1.0 | 8.0 | 0.00 | 0.00 | 0.00 | 51 | 1015.2 |
| 20260506125205 | 38 | 1 | 3.0 | 12.0 | 0.00 | 0.00 | 0.00 | 52 | 1015.0 |
| 20260506124705 | 38 | 8 | 1.0 | 12.0 | 0.00 | 0.00 | 0.00 | 54 | 1015.0 |
| 20260506124205 | 38 | 9 | 5.0 | 12.0 | 0.00 | 0.00 | 0.00 | 53 | 1014.9 |
| 20260506123704 | 37 | 19 | 2.0 | 7.0 | 0.00 | 0.00 | 0.00 | 55 | 1014.8 |
| 20260506123205 | 37 | 351 | 3.0 | 9.0 | 0.00 | 0.00 | 0.00 | 56 | 1014.8 |
| 20260506122706 | 37 | 15 | 0.0 | 9.0 | 0.00 | 0.00 | 0.00 | 57 | 1014.7 |
| 20260506122205 | 36 | 1 | 2.0 | 9.0 | 0.00 | 0.00 | 0.00 | 57 | 1014.7 |
| 20260506121705 | 36 | 18 | 2.0 | 7.0 | 0.00 | 0.00 | 0.00 | 59 | 1014.6 |
| 20260506121206 | 36 | 3 | 1.0 | 3.0 | 0.00 | 0.00 | 0.00 | 58 | 1014.5 |
| 20260506120705 | 36 | 20 | 2.0 | 7.0 | 0.00 | 0.00 | 0.00 | 59 | 1014.4 |
| 20260506115705 | 35 | 62 | 1.0 | 9.0 | 0.00 | 0.00 | 0.00 | 59 | 1014.3 |
| 20260506114206 | 35 | 34 | 1.0 | 8.0 | 0.00 | 0.00 | 0.00 | 60 | 1014.1 |
| 20260506113705 | 35 | 28 | 2.0 | 7.0 | 0.00 | 0.00 | 0.00 | 60 | 1014.0 |
| 20260506112705 | 35 | 25 | 1.0 | 6.0 | 0.00 | 0.00 | 0.00 | 59 | 1013.8 |
| 20260506112205 | 35 | 14 | 1.0 | 6.0 | 0.00 | 0.00 | 0.00 | 60 | 1013.8 |
| 20260506111705 | 35 | 6 | 1.0 | 6.0 | 0.00 | 0.00 | 0.00 | 60 | 1013.8 |
| 20260506111205 | 35 | 9 | 2.0 | 5.0 | 0.00 | 0.00 | 0.00 | 60 | 1013.9 |
| 20260506110705 | 35 | 353 | 2.0 | 6.0 | 0.00 | 0.00 | 0.00 | 60 | 1014.0 |
| 20260506110205 | 35 | 7 | 0.0 | 6.0 | 0.00 | 0.00 | 0.00 | 61 | 1014.0 |
| 20260506105705 | 35 | 3 | 1.0 | 6.0 | 0.00 | 0.00 | 0.00 | 61 | 1014.1 |
| 20260506105205 | 35 | 1 | 1.0 | 3.0 | 0.00 | 0.00 | 0.00 | 61 | 1014.2 |
| 20260506104705 | 35 | 357 | 0.0 | 0.0 | 0.00 | 0.00 | 0.00 | 61 | 1014.2 |
| 20260506103705 | 35 | 357 | 0.0 | 2.0 | 0.00 | 0.00 | 0.00 | 61 | 1014.0 |
| 20260506103204 | 35 | 357 | 0.0 | 2.0 | 0.00 | 0.00 | 0.00 | 60 | 1013.9 |
| 20260506102705 | 35 | 355 | 0.0 | 0.0 | 0.00 | 0.00 | 0.00 | 60 | 1013.8 |
| 20260506102205 | 35 | 355 | 0.0 | 0.0 | 0.00 | 0.00 | 0.00 | 60 | 1013.7 |
| 20260506101704 | 35 | 355 | 0.0 | 0.0 | 0.00 | 0.00 | 0.00 | 59 | 1013.6 |
| 20260506101205 | 35 | 355 | 0.0 | 3.0 | 0.00 | 0.00 | 0.00 | 59 | 1013.6 |
| 20260506100705 | 35 | 355 | 0.0 | 3.0 | 0.00 | 0.00 | 0.00 | 59 | 1013.5 |
| 20260506100205 | 35 | 357 | 1.0 | 3.0 | 0.00 | 0.00 | 0.00 | 58 | 1013.6 |
| 20260506095706 | 35 | 0 | 0.0 | 3.0 | 0.00 | 0.00 | 0.00 | 58 | 1013.6 |
| 20260506095205 | 35 | 0 | 0.0 | 3.0 | 0.00 | 0.00 | 0.00 | 58 | 1013.6 |
| 20260506094705 | 35 | 0 | 0.0 | 3.0 | 0.00 | 0.00 | 0.00 | 58 | 1013.6 |
| 20260506093204 | 35 | 0 | 0.0 | 3.0 | 0.00 | 0.00 | 0.00 | 57 | 1013.5 |
| 20260506092705 | 35 | 0 | 0.0 | 2.0 | 0.00 | 0.00 | 0.00 | 57 | 1013.6 |
| 20260506092205 | 35 | 0 | 0.0 | 3.0 | 0.00 | 0.00 | 0.00 | 57 | 1013.5 |
| 20260506091705 | 35 | 0 | 0.0 | 3.0 | 0.00 | 0.00 | 0.00 | 57 | 1013.6 |
| 20260506091205 | 35 | 26 | 0.0 | 3.0 | 0.00 | 0.00 | 0.00 | 57 | 1013.6 |
| 20260506090205 | 35 | 29 | 1.0 | 3.0 | 0.00 | 0.00 | 0.00 | 56 | 1013.5 |
| 20260506085705 | 35 | 29 | 1.0 | 3.0 | 0.00 | 0.00 | 0.00 | 56 | 1013.5 |
| 20260506085205 | 35 | 29 | 0.0 | 0.0 | 0.00 | 0.00 | 0.00 | 57 | 1013.4 |
| 20260506084705 | 35 | 29 | 0.0 | 0.0 | 0.00 | 0.00 | 0.00 | 56 | 1013.3 |
| 20260506084205 | 35 | 29 | 0.0 | 0.0 | 0.00 | 0.00 | 0.00 | 56 | 1013.2 |
| 20260506083705 | 36 | 29 | 0.0 | 0.0 | 0.00 | 0.00 | 0.00 | 56 | 1013.1 |
| 20260506083206 | 36 | 29 | 0.0 | 0.0 | 0.00 | 0.00 | 0.00 | 56 | 1013.2 |
| 20260506082705 | 36 | 29 | 0.0 | 0.0 | 0.00 | 0.00 | 0.00 | 56 | 1013.2 |
| 20260506082205 | 36 | 29 | 0.0 | 3.0 | 0.00 | 0.00 | 0.00 | 56 | 1013.2 |
| 20260506081705 | 36 | 29 | 0.0 | 3.0 | 0.00 | 0.00 | 0.00 | 56 | 1013.3 |
| 20260506081205 | 36 | 29 | 0.0 | 0.0 | 0.00 | 0.00 | 0.00 | 55 | 1013.3 |
| 20260506080705 | 36 | 29 | 0.0 | 0.0 | 0.00 | 0.00 | 0.00 | 55 | 1013.4 |
| 20260506080205 | 36 | 29 | 0.0 | 0.0 | 0.00 | 0.00 | 0.00 | 54 | 1013.4 |
| 20260506073205 | 37 | 29 | 0.0 | 2.0 | 0.00 | 0.00 | 0.00 | 53 | 1013.0 |
| 20260506072705 | 37 | 29 | 0.0 | 0.0 | 0.00 | 0.00 | 0.00 | 52 | 1012.9 |
| 20260506072205 | 37 | 29 | 0.0 | 0.0 | 0.00 | 0.00 | 0.00 | 52 | 1012.9 |
| 20260506071705 | 37 | 29 | 0.0 | 2.0 | 0.00 | 0.00 | 0.00 | 51 | 1012.9 |
| 20260506070705 | 37 | 29 | 0.0 | 3.0 | 0.00 | 0.00 | 0.00 | 51 | 1013.0 |
| 20260506070205 | 37 | 29 | 0.0 | 6.0 | 0.00 | 0.00 | 0.00 | 51 | 1013.1 |
| 20260506062205 | 38 | 26 | 1.0 | 3.0 | 0.00 | 0.00 | 0.00 | 49 | 1013.0 |
| 20260506061705 | 38 | 26 | 0.0 | 6.0 | 0.00 | 0.00 | 0.00 | 50 | 1013.0 |
| 20260506061205 | 38 | 26 | 1.0 | 7.0 | 0.00 | 0.00 | 0.00 | 49 | 1013.2 |
| 20260506060705 | 38 | 31 | 1.0 | 7.0 | 0.00 | 0.00 | 0.00 | 48 | 1013.1 |
| 20260506060206 | 38 | 16 | 1.0 | 8.0 | 0.00 | 0.00 | 0.00 | 48 | 1013.1 |
| 20260506051205 | 39 | 40 | 1.0 | 7.0 | 0.00 | 0.00 | 0.00 | 47 | 1012.8 |
| 20260506050705 | 40 | 44 | 1.0 | 8.0 | 0.00 | 0.00 | 0.00 | 47 | 1012.7 |
| 20260506050205 | 40 | 354 | 2.0 | 12.0 | 0.00 | 0.00 | 0.00 | 47 | 1012.7 |
| 20260506044705 | 40 | 55 | 2.0 | 9.0 | 0.00 | 0.00 | 0.00 | 47 | 1012.4 |
| 20260506044205 | 40 | 43 | 2.0 | 8.0 | 0.00 | 0.00 | 0.00 | 48 | 1012.4 |
| 20260506043706 | 40 | 5 | 2.0 | 8.0 | 0.00 | 0.00 | 0.00 | 48 | 1012.4 |
| 20260506042705 | 40 | 34 | 3.0 | 7.0 | 0.00 | 0.00 | 0.00 | 47 | 1012.4 |
| 20260506042205 | 41 | 28 | 0.0 | 5.0 | 0.00 | 0.00 | 0.00 | 47 | 1012.4 |
| 20260506041705 | 41 | 30 | 0.0 | 5.0 | 0.00 | 0.00 | 0.00 | 47 | 1012.4 |
| 20260506041205 | 41 | 0 | 1.0 | 5.0 | 0.00 | 0.00 | 0.00 | 47 | 1012.4 |
| 20260506040706 | 41 | 10 | 2.0 | 5.0 | 0.00 | 0.00 | 0.00 | 46 | 1012.5 |
| 20260506040205 | 41 | 358 | 1.0 | 3.0 | 0.00 | 0.00 | 0.00 | 47 | 1012.5 |
| 20260506035705 | 41 | 350 | 1.0 | 7.0 | 0.00 | 0.00 | 0.00 | 46 | 1012.5 |
| 20260506035205 | 41 | 10 | 0.0 | 9.0 | 0.00 | 0.00 | 0.00 | 46 | 1012.5 |
| 20260506034705 | 41 | 29 | 1.0 | 9.0 | 0.00 | 0.00 | 0.00 | 46 | 1012.5 |
| 20260506034206 | 42 | 33 | 1.0 | 7.0 | 0.00 | 0.00 | 0.00 | 45 | 1012.4 |
| 20260506033706 | 42 | 41 | 1.0 | 10.0 | 0.00 | 0.00 | 0.00 | 45 | 1012.3 |
| 20260506033205 | 42 | 65 | 1.0 | 10.0 | 0.00 | 0.00 | 0.00 | 45 | 1012.3 |
| 20260506032705 | 42 | 44 | 1.0 | 12.0 | 0.00 | 0.00 | 0.00 | 45 | 1012.2 |
| 20260506031705 | 42 | 38 | 2.0 | 12.0 | 0.00 | 0.00 | 0.00 | 44 | 1012.2 |
| 20260506031205 | 42 | 18 | 5.0 | 12.0 | 0.00 | 0.00 | 0.00 | 44 | 1012.2 |
| 20260506030705 | 43 | 9 | 3.0 | 12.0 | 0.00 | 0.00 | 0.00 | 44 | 1012.2 |
| 20260506030205 | 43 | 43 | 3.0 | 12.0 | 0.00 | 0.00 | 0.00 | 43 | 1012.1 |
| 20260506025706 | 43 | 36 | 3.0 | 8.0 | 0.00 | 0.00 | 0.00 | 44 | 1012.0 |
| 20260506025205 | 43 | 39 | 2.0 | 10.0 | 0.00 | 0.00 | 0.00 | 43 | 1012.0 |
| 20260506024707 | 43 | 64 | 2.0 | 12.0 | 0.00 | 0.00 | 0.00 | 43 | 1011.8 |
| 20260506024206 | 44 | 27 | 5.0 | 12.0 | 0.00 | 0.00 | 0.00 | 42 | 1011.7 |